Theta_e
311 311 311 311 311 310 310 310 310 309 308 305 302 304 296 294 292 302 305 306 304 297 291 294 295 296 299 302 300 301 299 297 299 298 300 299 302 300 300 300 299 300 299 299 298 299 296 298 297 303 306 307 309 311 312 313 311 311 306 308 308 321 301 297 299 302 306 308 310 310 310 308 305 305 305 303 300 300 298 296 299 296 299 295 296 295 299
311 311 310 310 311 310 310 310 310 310 308 306 303 299 295 295 294 297 304 307 304 295 287 288 292 295 299 299 298 301 299 298 297 298 299 298 298 299 299 301 302 299 303 301 298 300 293 299 300 299 303 304 312 311 311 312 310 309 306 304 309 302 302 299 294 294 295 301 304 304 308 307 303 301 303 304 304 303 302 301 304 297 298 298 294 291 295
311 310 311 310 310 310 309 309 309 310 309 308 304 295 297 295 297 297 300 305 302 293 294 291 291 293 294 294 293 295 296 298 298 297 296 299 298 298 298 301 302 301 302 301 301 301 298 295 300 300 302 302 307 310 311 311 309 312 315 327 311 305 302 299 293 290 289 290 291 292 296 300 303 305 304 304 303 302 299 295 297 290 298 301 295 296 301
310 310 310 310 310 310 309 309 309 310 310 309 304 299 295 292 285 293 295 299 299 298 300 296 293 291 292 291 292 293 292 295 297 299 299 301 299 299 299 300 301 299 300 298 299 299 302 298 296 298 299 301 304 306 310 311 310 321 331 327 311 304 305 302 299 296 295 297 300 310 307 302 300 302 304 304 304 304 302 298 295 290 296 299 298 301 305
310 310 310 310 310 309 309 309 309 309 309 309 303 299 296 295 288 289 287 294 295 294 295 294 297 290 294 288 292 291 292 295 296 301 295 301 300 300 299 299 297 297 297 296 297 300 299 301 299 299 298 301 303 306 305 306 313 331 329 329 312 305 301 303 302 301 302 307 306 308 307 302 303 303 303 304 303 303 301 297 295 299 296 287 300 305 302
310 310 310 310 309 309 310 309 309 309 309 308 304 294 297 288 292 294 296 289 286 289 290 294 292 294 294 291 294 291 291 292 290 296 299 300 301 296 297 299 298 296 296 297 296 297 294 298 295 298 300 300 302 302 305 305 313 325 316 318 312 308 300 304 304 303 304 305 305 307 307 305 304 304 303 303 304 303 300 300 301 302 296 294 299 308 305
310 310 310 310 309 309 309 309 309 308 307 307 302 292 296 295 294 294 297 289 292 292 292 294 293 292 293 292 292 290 291 290 294 294 295 296 296 299 292 294 296 296 297 296 294 296 291 292 297 297 297 299 299 298 302 306 310 316 313 311 311 308 303 305 305 304 304 304 305 305 304 305 305 304 304 304 304 303 303 302 302 302 301 301 302 307 311
310 310 310 309 309 310 310 309 308 308 307 306 300 297 292 291 291 290 296 294 292 293 293 293 292 289 293 288 291 291 291 290 294 295 294 291 294 299 294 294 296 296 296 296 293 295 296 294 291 297 297 296 299 297 299 300 304 305 308 311 311 305 305 311 305 302 302 305 306 305 305 304 303 304 305 305 304 304 303 303 303 304 302 303 303 302 304
310 310 310 309 309 309 309 309 309 308 307 301 298 297 298 297 299 297 291 288 291 292 292 291 290 288 290 289 290 291 291 291 294 293 297 294 292 296 294 296 295 296 295 294 294 297 296 296 296 298 298 294 299 297 299 303 299 304 304 308 311 307 304 308 306 300 300 304 304 305 305 304 303 303 304 304 303 301 302 301 303 301 301 304 301 300 300
309 309 310 309 309 309 309 309 309 307 307 301 299 295 301 299 303 301 295 287 293 290 292 291 289 286 291 291 291 291 291 293 294 290 296 297 297 297 295 295 294 294 294 292 295 297 298 299 301 301 302 302 303 304 304 304 302 301 302 307 305 303 302 300 301 298 300 305 305 304 304 302 299 300 304 305 306 306 304 304 306 305 304 300 299 298 303
310 309 309 309 309 309 309 309 309 309 306 300 298 297 298 297 295 296 296 286 289 290 289 289 288 291 292 293 292 294 293 293 294 289 291 296 296 298 297 296 293 291 292 296 300 300 301 303 303 305 305 305 304 306 306 307 306 305 305 305 307 306 304 300 304 296 300 304 304 307 300 293 295 307 308 308 306 306 303 303 304 305 306 301 303 305 313
309 310 310 309 309 309 309 309 309 308 307 306 304 300 301 302 300 297 291 285 287 291 289 287 289 291 291 293 293 292 291 291 292 296 291 294 296 297 296 296 297 291 299 303 302 303 304 305 305 305 305 307 306 306 307 306 305 308 308 305 304 304 302 300 303 298 298 304 304 298 293 296 309 311 312 310 309 309 307 307 307 307 306 308 308 309 308
310 310 310 309 309 309 308 308 309 308 308 307 304 299 302 304 298 295 293 289 285 288 287 289 293 292 293 293 292 293 294 295 295 296 296 295 295 296 297 296 296 298 303 302 302 301 297 295 298 301 303 305 304 304 303 304 305 306 307 307 304 303 301 301 301 300 301 299 298 291 293 308 310 310 313 316 311 309 310 306 309 312 315 314 311 313 316
309 309 310 309 309 309 309 308 309 309 308 307 303 303 304 304 298 294 294 288 287 290 291 290 291 291 292 293 293 293 294 294 295 296 294 297 295 295 298 300 301 306 308 303 300 299 296 297 293 295 298 302 301 299 302 304 305 305 306 308 307 306 305 300 298 303 294 296 295 296 307 307 310 308 312 310 309 309 305 299 313 322 318 317 316 315 318
309 310 310 310 310 310 309 308 308 308 308 307 305 304 304 304 302 297 298 293 287 290 292 286 290 291 292 292 293 291 291 293 292 292 296 298 296 298 300 302 305 305 304 305 300 299 295 294 290 290 294 295 290 293 301 298 304 306 307 307 308 311 302 301 297 296 300 296 293 294 294 293 301 313 320 318 316 315 317 316 313 324 323 323 320 320 321
310 310 311 311 311 310 310 309 309 308 309 306 305 304 304 307 306 302 297 293 290 283 288 294 295 293 291 292 293 291 290 290 291 291 292 295 296 299 302 305 304 305 304 301 304 298 295 290 289 290 289 293 298 296 295 299 299 305 306 307 307 306 315 306 300 301 298 297 292 292 291 298 313 317 318 316 316 316 317 310 307 319 323 323 322 323 325
309 310 309 309 310 310 310 309 309 309 309 307 303 303 303 308 305 302 297 296 292 287 294 295 295 295 293 291 293 293 294 290 291 287 287 290 294 296 300 303 305 303 301 300 301 298 294 291 293 292 293 297 294 295 299 298 296 299 304 308 305 304 305 304 299 302 302 299 295 294 300 303 312 317 314 315 316 319 311 297 301 317 324 324 325 325 326
309 309 310 309 310 310 309 309 309 309 308 308 305 302 302 307 307 304 299 295 290 290 294 297 295 292 291 293 291 294 296 296 294 295 291 293 295 298 297 298 296 302 303 295 298 294 292 292 289 290 288 297 299 300 291 298 296 298 299 300 299 303 305 304 299 299 300 302 300 299 302 318 320 316 316 315 317 314 299 292 309 324 323 325 326 324 325
309 309 309 309 309 309 309 309 308 308 309 307 306 304 303 306 307 305 299 295 293 288 296 300 300 296 298 300 296 297 296 295 295 291 290 290 294 298 299 298 301 294 300 296 299 295 294 292 300 297 292 295 300 295 301 297 297 303 303 300 300 300 303 303 305 299 299 299 298 298 306 314 318 317 317 317 314 299 299 315 325 325 322 325 325 324 324
309 309 309 309 309 309 308 308 308 308 308 308 305 301 303 306 307 306 299 294 296 292 295 297 298 295 299 296 294 293 295 295 296 293 291 287 296 297 294 291 300 299 297 299 293 299 294 291 294 299 295 295 298 304 299 301 305 300 301 308 303 304 300 297 298 302 302 302 298 295 291 310 321 317 316 317 307 310 319 321 322 325 325 326 328 329 330
308 309 309 309 309 309 308 308 308 308 308 308 306 303 301 306 307 309 308 302 295 291 293 300 301 299 300 299 300 299 297 294 295 293 298 296 300 295 285 287 292 294 293 293 289 292 295 293 295 296 301 299 301 300 296 299 300 306 305 304 304 309 303 299 302 305 298 298 295 294 305 314 319 316 311 318 320 322 325 321 319 325 328 328 329 331 333
308 308 309 309 308 309 308 308 308 308 308 308 307 304 300 304 306 308 307 306 297 294 295 300 302 301 302 303 303 302 300 299 300 301 296 293 297 295 294 295 295 298 299 300 296 295 299 299 301 298 296 299 305 297 301 295 293 303 309 308 300 310 308 309 299 308 307 303 305 311 313 318 323 323 321 321 322 323 322 323 324 325 327 330 328 329 331
308 309 309 309 309 309 308 308 308 308 308 308 307 303 300 302 304 309 305 300 302 301 302 301 302 303 304 305 306 306 305 305 304 302 301 296 294 296 295 294 296 304 305 304 297 296 297 297 295 300 299 301 298 297 301 301 298 302 300 308 308 313 315 315 312 310 315 317 317 318 320 320 321 323 322 322 324 326 327 327 324 324 325 326 325 327 328
308 309 309 308 309 309 308 308 308 308 308 308 307 304 302 304 306 305 304 301 297 293 297 300 297 295 297 299 303 306 307 306 306 305 306 303 293 294 297 299 303 300 302 303 309 300 298 299 299 301 295 301 303 297 294 295 299 305 303 304 308 312 314 312 308 312 305 299 312 315 318 319 320 321 324 327 328 326 325 323 322 322 322 322 323 323 324
309 309 309 309 309 309 309 309 308 308 308 308 308 308 307 305 307 305 300 293 294 293 288 292 294 299 302 304 305 304 305 306 307 306 306 305 301 296 294 304 303 300 300 305 310 307 304 296 300 299 295 303 304 293 305 298 299 307 299 303 306 307 316 311 312 311 309 310 316 316 319 320 322 322 322 323 324 324 324 324 323 322 322 322 321 322 322
309 309 309 309 309 309 309 309 309 309 308 308 308 305 303 303 307 308 306 303 299 295 289 288 293 302 305 302 301 304 307 306 305 305 304 305 305 303 300 301 302 306 304 302 311 303 301 298 301 300 294 297 311 300 298 304 303 307 304 303 309 312 314 306 312 308 312 313 315 315 318 320 321 322 321 320 321 321 322 322 321 321 319 319 319 319 319
309 309 309 309 309 309 309 309 309 309 308 309 307 306 306 306 308 306 302 300 294 290 293 290 295 299 302 299 303 305 305 304 304 304 304 305 304 304 303 301 300 304 301 300 303 304 303 301 299 297 301 302 309 305 306 303 304 303 303 308 314 311 307 313 312 307 306 307 310 314 310 310 316 319 319 319 320 319 318 318 318 318 317 317 315 315 317
309 309 309 309 309 309 309 309 309 309 309 309 308 307 307 306 307 309 310 305 297 290 291 291 291 295 302 299 304 305 305 306 304 302 302 303 303 303 302 301 301 299 299 297 296 298 301 297 296 303 305 307 304 302 310 310 309 304 305 309 313 308 309 311 308 306 304 314 316 317 317 317 316 318 319 319 319 318 316 315 314 315 315 315 314 312 312
309 309 309 309 309 309 309 309 309 309 308 307 306 305 305 307 309 311 309 310 307 299 295 295 297 296 291 296 304 303 304 304 305 302 301 301 302 302 301 301 301 300 300 299 299 300 301 300 305 301 301 309 302 302 306 299 299 298 306 313 314 314 316 314 314 315 316 318 318 320 318 314 316 318 319 320 321 318 316 316 316 315 315 315 314 313 311
309 309 309 309 309 309 309 309 308 308 308 306 304 302 298 301 309 310 311 309 306 302 293 291 288 292 301 301 300 303 304 306 304 304 303 301 300 300 301 301 302 304 305 300 304 297 301 301 303 305 307 310 302 303 299 301 298 303 312 314 315 316 316 318 319 317 314 320 321 322 320 320 321 320 320 319 321 320 318 318 317 316 317 317 315 313 313
309 309 309 309 309 309 309 309 309 309 308 305 302 295 293 291 303 308 309 307 310 301 297 295 291 297 296 301 303 302 305 305 304 303 302 302 301 301 302 304 303 303 299 300 301 300 302 300 302 305 308 307 305 302 301 300 296 302 308 312 313 314 314 316 319 320 320 321 322 323 322 321 320 316 316 317 318 319 318 320 322 324 321 319 316 314 312
309 309 309 309 309 309 309 309 309 309 307 302 298 297 298 300 305 308 308 308 307 300 295 290 291 292 293 297 302 306 305 305 305 304 303 302 299 301 302 303 301 303 303 301 301 301 300 302 301 303 307 312 306 303 305 301 298 301 309 312 314 314 314 315 317 319 320 323 322 316 315 316 319 314 311 315 316 318 318 319 320 321 324 322 319 316 315
309 309 309 309 309 309 309 310 310 309 306 306 308 308 307 306 306 307 307 306 303 298 300 294 289 292 291 295 301 304 305 304 302 302 300 302 299 300 298 303 303 304 306 302 299 297 303 302 303 301 307 314 306 305 303 301 303 308 311 312 312 312 313 315 317 317 318 319 321 315 312 313 314 316 317 317 317 316 317 317 317 316 316 316 317 316 316
310 309 309 309 310 310 310 310 310 309 309 305 301 303 308 309 308 307 307 308 302 302 301 294 291 290 291 300 295 301 307 300 299 303 297 302 304 300 300 300 301 302 307 300 303 302 305 302 301 302 308 306 308 304 298 303 308 309 311 311 313 314 314 313 313 314 315 316 317 317 317 317 317 316 316 316 316 319 320 318 316 313 312 311 311 312 312
310 309 309 310 310 310 310 310 308 307 303 303 304 307 309 307 310 311 309 305 297 296 296 296 295 290 290 292 291 298 307 303 299 303 300 303 305 305 303 301 300 297 304 306 300 301 300 301 305 304 301 308 303 298 302 305 308 309 310 310 312 314 313 311 311 314 315 316 316 316 317 317 315 313 313 314 315 316 316 317 318 316 314 313 312 312 313
310 310 310 310 310 310 310 310 308 305 304 302 304 314 313 311 312 310 311 310 303 296 294 294 294 290 291 287 288 298 306 300 304 304 302 303 300 308 309 299 296 299 306 301 297 300 298 310 306 299 307 301 297 301 304 308 307 309 310 310 312 313 312 312 312 313 314 315 315 314 314 314 313 313 313 314 314 314 314 314 315 316 316 316 316 315 313
310 310 310 310 310 309 306 307 310 307 306 308 313 315 313 310 310 310 309 307 309 308 297 294 291 291 293 292 296 300 302 294 302 303 304 300 301 305 304 299 297 303 300 298 300 298 307 315 306 300 300 297 301 308 310 310 309 310 311 312 312 313 314 314 316 316 313 313 313 313 312 311 311 312 313 313 314 314 314 313 313 313 313 314 316 316 315
310 310 309 309 307 302 302 305 307 312 315 313 313 309 306 304 300 302 303 300 303 304 299 298 291 294 300 296 290 304 300 299 306 298 298 301 302 300 306 299 299 300 292 296 301 306 308 306 301 299 299 306 309 310 309 311 311 311 311 313 315 315 315 315 316 315 313 311 311 312 313 312 311 311 311 312 313 313 313 314 315 315 315 316 316 317 318
309 310 310 309 303 301 301 306 319 313 311 312 310 302 301 303 300 297 297 300 301 295 299 296 293 298 298 296 297 305 303 300 299 300 294 302 300 294 302 294 300 303 292 296 300 312 298 300 300 299 298 303 305 308 311 309 309 311 312 313 313 313 313 313 314 313 311 310 310 311 313 311 311 311 313 312 313 314 314 314 315 315 316 316 316 316 316
310 305 303 303 302 304 311 314 315 312 311 304 307 302 296 302 295 290 302 294 292 298 299 292 299 301 302 298 297 298 308 302 296 296 298 300 309 298 302 300 302 301 291 294 299 311 299 294 298 298 296 302 304 309 312 313 313 313 313 313 314 314 315 314 314 315 314 314 314 314 314 314 314 313 313 313 312 312 313 314 315 315 315 316 318 316 315
307 305 305 302 304 307 309 312 312 310 305 302 300 301 298 290 299 300 295 291 294 296 303 301 304 301 304 305 304 297 307 309 307 310 304 298 309 306 300 296 306 297 294 294 303 306 302 298 297 295 296 303 305 309 312 312 313 315 316 315 315 315 315 315 316 316 315 314 314 314 314 314 314 314 314 314 314 313 313 314 314 315 315 315 315 315 317
306 303 304 306 307 308 309 308 308 304 303 305 295 289 292 296 300 298 298 290 292 298 300 303 298 299 301 304 303 306 306 313 310 306 303 297 305 303 299 300 303 296 290 299 306 302 300 292 290 293 301 305 309 311 312 312 314 314 314 316 316 314 314 314 314 315 316 315 314 315 315 315 315 315 315 315 315 315 315 315 315 315 316 317 318 317 317
307 308 308 306 308 305 306 296 300 300 290 290 289 287 293 288 293 292 295 299 302 302 303 308 306 309 309 312 305 307 306 310 303 304 301 299 307 305 299 295 297 290 297 306 303 298 295 293 292 297 304 307 309 310 311 313 314 315 315 317 318 318 316 314 314 314 315 315 315 315 315 315 314 315 316 316 316 316 316 318 318 317 317 318 318 318 318
310 310 307 304 297 298 301 286 300 296 289 291 289 286 291 289 292 298 294 296 300 301 303 302 302 303 298 307 305 304 307 308 310 307 304 306 301 297 297 291 295 302 307 300 298 292 293 297 299 301 306 307 309 309 310 310 311 312 313 312 314 314 314 314 314 313 313 314 315 315 316 315 315 316 316 316 316 315 316 316 318 318 318 318 317 317 319
305 300 294 293 290 293 291 286 297 289 285 289 291 291 291 288 291 294 294 301 302 300 305 305 305 305 302 307 308 306 307 302 312 302 296 302 298 300 296 294 301 303 298 292 294 295 296 294 302 305 305 305 308 311 313 313 313 312 311 311 312 312 313 312 312 312 312 313 314 315 314 314 314 314 315 315 316 317 316 316 317 317 317 317 317 318 319
305 297 293 289 287 291 291 288 290 288 295 296 293 295 293 295 296 297 302 305 302 304 304 305 306 306 303 310 303 301 307 305 301 301 303 301 295 293 300 306 305 296 295 293 290 289 293 297 301 303 305 308 310 312 312 312 312 311 312 310 311 312 312 312 312 313 313 314 314 314 313 313 313 313 313 314 315 316 317 317 317 317 318 317 317 317 319
303 306 296 293 289 292 301 290 291 295 298 298 299 300 299 300 302 302 303 305 304 306 306 307 307 306 303 303 305 305 307 305 300 303 305 296 296 298 305 300 291 293 289 288 290 293 296 300 303 306 308 310 310 312 314 314 312 313 313 312 312 311 312 312 312 312 313 314 313 313 313 313 314 314 313 312 312 312 315 316 316 316 315 314 315 314 313
296 302 299 289 288 293 292 297 301 301 304 302 302 303 305 307 305 303 309 309 308 309 306 305 303 306 306 308 309 300 303 304 300 301 305 301 302 298 290 292 293 295 296 293 293 299 299 303 305 308 310 311 311 313 311 311 311 311 311 311 311 310 309 309 310 310 311 312 313 313 313 313 313 313 313 312 311 312 314 315 316 317 316 314 314 314 314
308 297 293 291 297 299 298 303 298 290 300 303 306 307 305 303 303 304 307 310 308 307 308 306 305 304 299 306 302 300 296 302 294 292 301 299 294 289 291 288 291 289 296 299 298 301 303 305 307 308 308 309 309 309 311 312 312 311 310 311 311 312 312 312 313 313 313 313 313 314 314 315 313 312 312 312 312 315 317 316 316 315 315 317 318 316 315
296 295 302 295 299 299 302 300 298 297 300 302 303 304 307 304 303 305 309 308 308 308 309 309 308 301 300 303 293 296 295 300 298 295 296 292 294 297 295 290 292 292 295 301 301 302 305 306 308 308 310 310 311 311 311 311 312 313 312 312 313 313 313 312 312 313 314 314 313 313 315 315 312 311 310 310 313 315 315 317 316 315 315 315 316 316 317
305 296 299 304 299 298 300 295 295 296 298 300 302 302 304 306 307 307 312 309 307 308 306 301 300 298 294 293 292 290 292 303 298 295 294 293 297 296 293 291 294 298 300 304 305 305 307 308 309 308 309 310 311 312 312 313 313 313 313 314 314 314 313 313 313 314 314 315 316 319 316 313 313 315 317 315 313 312 311 313 314 314 314 315 316 315 317
294 293 297 302 305 304 304 304 303 302 302 306 305 306 306 306 308 311 317 311 309 303 300 303 301 294 291 291 294 299 304 298 293 295 292 296 300 295 295 296 298 301 303 303 304 307 308 309 310 310 310 311 312 312 313 314 314 313 313 314 314 315 315 316 315 315 315 315 315 315 315 316 317 316 316 314 314 313 311 310 312 313 314 313 313 315 317
Wind_Speed
20 20 20 19 18 16 14 14 14 13 12 9 8 8 8 8 12 17 23 24 16 10 9 9 10 12 12 15 18 18 18 16 14 17 14 15 12 13 14 15 15 15 13 16 16 15 13 15 13 11 13 14 14 9 18 20 21 19 8 15 14 12 6 6 9 7 10 12 8 19 20 18 14 13 14 11 13 12 9 5 3 2 1 5 3 7 3
21 20 20 20 18 14 13 13 12 11 8 6 7 7 8 9 12 15 14 12 11 8 8 7 9 10 13 17 19 14 15 15 14 14 16 13 11 13 13 16 15 16 15 14 16 12 10 13 13 12 10 8 11 19 16 16 14 17 6 9 14 9 8 5 4 6 7 9 6 6 18 15 11 7 12 14 11 11 11 6 3 8 8 7 6 8 4
21 20 19 17 16 16 13 11 11 10 9 7 6 6 7 10 10 12 12 11 8 10 7 10 10 11 14 15 16 15 14 11 17 18 19 17 16 15 14 16 14 14 14 16 16 17 15 14 15 13 15 12 12 15 20 19 14 15 13 12 13 13 8 11 8 11 12 10 11 7 9 15 8 8 11 16 17 14 10 12 5 7 7 11 4 3 4
20 20 19 17 16 16 12 11 10 10 8 7 6 5 7 6 9 8 9 9 8 9 8 12 11 11 13 15 15 17 17 15 13 14 14 16 21 19 16 17 18 18 18 16 16 18 14 15 12 10 11 10 9 11 10 17 15 15 22 19 12 8 8 12 14 10 9 9 4 3 6 10 13 14 13 10 15 15 12 6 6 8 4 9 7 4 2
21 22 20 17 16 14 12 10 10 10 8 6 5 4 5 4 6 7 10 12 6 7 10 9 9 9 13 8 10 13 15 14 15 12 9 11 15 9 5 10 14 10 13 13 14 17 21 17 17 16 14 14 13 22 17 17 19 22 14 21 10 6 9 15 17 17 11 5 8 12 7 12 13 14 17 16 11 12 15 11 14 5 3 5 3 7 11
22 22 21 19 16 13 12 12 10 8 7 4 4 4 4 4 5 8 7 6 11 14 12 15 17 17 15 10 10 14 15 14 12 14 12 13 13 10 10 11 10 14 12 15 9 14 17 15 8 19 15 16 21 21 18 12 15 19 8 12 9 5 9 14 16 19 19 17 15 11 9 8 10 12 13 18 19 14 12 11 12 6 6 11 6 3 6
21 21 20 19 16 14 13 11 8 7 6 4 4 5 5 7 7 9 9 5 8 11 17 20 17 16 14 7 13 15 14 14 13 8 14 15 12 10 11 12 14 15 14 11 8 12 12 11 11 7 17 17 12 7 18 15 9 17 12 11 4 3 2 7 15 12 16 18 20 19 17 10 11 15 14 15 19 21 19 12 8 10 7 7 8 7 7
21 20 20 18 16 14 12 10 8 7 6 3 4 6 6 6 6 4 7 7 11 12 12 13 13 12 13 9 9 13 13 16 14 12 9 12 13 8 8 12 14 13 11 7 8 11 12 13 16 18 18 21 7 15 8 11 20 21 10 6 3 6 2 4 6 11 14 15 16 17 16 16 10 6 13 15 16 18 18 17 13 8 10 11 8 8 10
21 19 19 18 16 13 13 10 7 6 1 4 4 6 6 6 5 5 7 10 6 8 10 9 9 10 10 8 11 13 17 17 15 15 12 12 14 9 9 12 14 9 10 11 12 13 15 17 18 18 17 15 13 8 11 13 19 21 16 7 3 12 2 2 2 3 5 14 19 17 18 16 15 15 12 12 13 14 16 14 11 11 6 5 11 10 8
20 19 19 18 16 13 12 10 7 7 5 4 3 7 6 5 4 2 2 6 7 9 10 11 9 9 5 6 13 10 17 19 16 13 8 11 13 8 12 15 13 13 12 13 14 16 18 20 19 17 17 17 16 16 20 15 14 12 15 14 4 6 5 4 1 1 2 2 8 19 18 15 15 18 16 11 5 4 6 13 15 13 12 7 5 7 6
20 19 18 17 16 15 14 12 9 7 5 6 4 5 6 6 4 4 2 7 7 7 8 9 9 7 9 12 14 13 14 18 15 12 7 7 12 14 15 11 7 10 11 11 14 17 19 19 21 16 18 20 18 18 19 21 18 17 14 12 4 5 9 4 3 2 1 4 8 3 11 16 15 4 6 6 10 7 9 8 7 12 12 5 6 8 3
18 17 17 16 16 15 14 13 11 8 7 6 4 8 7 7 6 3 4 5 9 8 8 9 10 11 13 15 13 12 14 17 19 14 16 12 13 12 14 11 6 10 8 11 13 15 19 16 16 16 18 16 18 20 22 21 21 16 15 15 7 8 8 4 4 2 2 1 3 5 8 7 3 4 2 5 8 9 8 6 6 3 9 7 2 3 1
16 16 17 16 16 15 15 13 11 9 8 5 5 8 6 1 1 4 4 6 8 7 9 11 12 15 16 14 13 14 12 15 20 17 16 16 12 11 10 10 9 12 1 5 12 15 12 16 16 15 14 15 14 18 21 21 20 19 16 14 6 3 9 4 3 4 2 0 3 6 5 1 5 1 1 3 3 4 2 7 3 7 8 4 6 6 6
17 16 16 16 16 15 15 13 10 8 7 5 6 7 6 4 5 4 3 4 7 7 8 12 13 12 12 12 12 14 14 13 15 16 13 11 13 12 14 9 12 3 7 1 8 8 8 6 8 11 13 11 9 11 13 17 17 17 17 13 11 4 3 5 1 4 4 3 4 5 3 3 2 3 1 1 1 2 5 3 7 7 4 4 4 5 8
17 16 15 15 14 13 12 12 11 10 8 6 6 6 7 5 5 5 2 4 8 9 7 8 9 12 13 12 11 12 11 11 11 12 16 13 11 7 11 16 14 12 7 5 3 3 3 4 5 8 7 5 4 6 10 9 7 12 12 12 11 2 4 5 9 2 5 3 4 5 3 5 3 1 1 2 4 7 5 7 1 6 8 5 6 7 7
16 16 16 14 14 13 12 12 10 10 8 6 6 6 6 6 3 3 5 5 5 8 5 7 8 11 11 11 13 13 8 8 8 10 12 9 11 13 8 9 11 8 6 2 0 2 3 1 3 3 4 6 7 6 5 8 7 7 9 14 16 8 4 7 11 3 11 9 6 6 6 3 0 2 2 5 5 5 4 6 3 6 5 6 5 9 7
17 16 16 15 14 14 12 11 10 7 8 5 6 7 6 4 5 6 5 4 5 9 9 14 15 14 10 10 8 5 5 4 6 7 8 10 13 12 10 9 9 9 4 1 1 1 1 2 4 4 7 8 7 7 14 10 8 6 8 3 9 7 2 8 9 3 3 6 9 5 2 1 5 1 6 6 4 0 6 3 1 4 6 9 9 12 10
18 17 16 16 14 13 12 11 11 10 9 6 5 7 8 4 2 4 4 5 6 8 9 11 12 9 7 6 7 8 8 4 4 5 7 11 10 7 11 10 10 9 2 6 3 3 5 4 4 3 7 6 9 11 5 8 8 6 9 10 4 2 3 1 7 7 5 4 1 3 1 1 4 2 5 5 6 7 6 5 3 2 7 8 9 10 9
17 17 17 16 14 12 12 11 11 11 10 7 5 7 7 7 4 4 4 5 5 8 6 10 12 14 13 12 10 9 9 9 7 6 7 9 4 10 14 10 8 5 7 4 2 3 4 4 1 1 2 5 6 5 7 6 7 10 12 15 10 4 1 1 1 6 5 4 2 1 1 2 1 4 3 2 2 1 4 2 3 4 7 9 10 9 9
18 18 17 16 14 12 12 12 11 11 11 8 4 6 8 8 4 7 7 6 4 10 11 10 10 16 12 12 10 8 8 9 4 4 3 5 8 12 9 3 5 7 4 1 2 2 4 5 3 2 2 4 3 4 8 6 7 5 6 3 1 6 5 1 1 2 1 3 2 2 3 3 1 4 2 2 3 3 4 6 7 6 8 8 9 8 7
18 17 17 15 14 13 13 12 13 12 12 11 6 6 8 5 7 3 5 6 5 9 9 8 10 11 11 13 13 13 13 12 9 9 3 6 5 6 5 5 5 4 3 3 4 4 2 4 3 3 3 2 4 6 4 7 7 6 12 6 3 10 5 6 7 4 0 3 3 3 3 3 3 4 3 1 4 5 4 6 7 6 6 6 7 10 9
18 17 16 16 14 14 14 14 13 13 12 11 8 6 8 6 5 3 2 2 6 9 9 12 14 16 18 18 17 16 17 18 17 13 10 9 6 6 7 7 7 2 2 2 2 4 2 2 4 0 2 1 1 5 5 4 4 7 9 8 3 7 3 2 5 5 1 4 4 3 5 4 6 11 7 7 6 7 9 10 9 7 8 7 10 10 11
18 17 16 16 16 15 14 14 13 12 12 11 8 5 8 8 6 1 2 5 6 8 9 11 12 14 14 17 19 18 17 16 15 14 11 9 8 6 7 6 4 2 3 2 2 5 5 6 3 2 2 1 2 5 3 2 2 5 7 6 4 5 8 5 3 4 8 9 7 12 6 13 13 9 10 11 10 10 10 13 13 10 9 9 10 10 11
17 16 16 16 15 15 14 14 13 12 12 11 8 6 7 6 6 5 5 5 5 8 9 9 8 7 8 11 13 10 12 14 16 16 11 8 9 8 6 4 3 1 3 4 1 1 4 4 4 3 2 1 3 3 1 2 1 4 6 4 4 7 12 10 3 7 6 3 14 13 1 10 15 16 14 13 12 13 14 13 12 11 11 13 12 12 12
17 17 16 16 16 15 15 14 14 13 12 13 11 8 7 7 3 4 4 6 4 4 8 9 11 13 15 16 13 11 10 10 9 10 11 11 12 9 8 3 4 3 1 3 3 1 1 4 3 1 2 2 1 3 4 4 3 6 5 3 6 3 11 7 5 5 3 1 7 14 5 10 11 10 10 13 15 17 15 13 12 13 13 13 12 13 14
18 17 17 17 16 16 15 14 14 14 13 13 12 8 7 7 5 5 3 4 5 4 7 9 11 10 10 13 13 11 11 11 10 13 14 14 14 12 10 7 4 4 1 2 2 1 2 4 3 3 1 3 1 1 3 1 6 7 5 7 4 6 6 3 6 3 4 11 14 17 8 16 14 15 13 11 12 13 14 14 14 15 16 15 15 15 13
18 19 18 18 17 16 15 14 14 14 14 12 9 7 8 7 6 5 6 4 4 5 6 8 8 11 12 17 17 14 15 14 13 14 15 18 16 12 10 7 6 1 1 4 4 3 2 3 4 4 2 2 1 3 1 4 3 4 3 3 4 4 2 2 4 2 5 2 8 13 6 5 7 12 13 12 13 15 15 13 14 13 13 13 16 15 15
20 19 19 19 18 17 16 16 15 14 12 13 11 8 8 8 8 7 6 5 6 6 8 10 10 13 15 19 17 12 12 13 13 13 12 10 13 13 9 9 6 4 4 4 4 3 2 3 4 4 4 2 2 2 1 2 4 5 5 3 2 2 3 4 2 4 4 4 7 10 6 6 10 9 8 11 11 13 15 14 14 13 12 11 13 14 14
20 20 19 19 18 18 17 16 16 15 15 11 8 9 9 10 9 6 6 4 4 4 6 9 11 11 9 9 13 14 13 12 9 10 10 12 13 12 12 9 5 6 6 5 4 3 3 3 2 2 3 1 1 2 1 0 1 3 2 4 6 3 5 7 6 4 2 3 6 7 4 8 8 10 11 11 9 12 15 13 12 11 11 11 12 11 12
23 21 21 20 19 18 18 17 16 15 13 8 6 5 6 2 2 1 3 5 4 2 4 8 9 6 8 10 14 13 12 11 9 9 11 11 10 7 6 5 4 4 1 3 2 4 3 4 4 5 5 5 3 1 2 1 2 3 0 2 3 6 4 4 4 4 2 3 3 3 3 6 8 9 9 9 10 11 12 12 11 11 10 10 11 10 9
23 23 21 20 19 19 18 17 15 13 10 7 4 4 3 3 0 3 4 1 2 3 6 5 9 9 11 9 10 10 10 8 7 8 11 11 7 7 6 4 3 4 4 4 3 4 2 3 3 1 2 3 2 1 2 1 3 3 2 3 3 4 7 7 3 3 2 3 2 1 4 7 7 8 10 8 8 7 9 9 10 11 11 10 11 8 8
25 22 21 20 20 19 19 18 16 11 7 6 6 5 3 4 2 6 8 7 5 5 6 6 7 6 6 7 5 7 11 11 7 6 6 6 7 7 6 7 4 6 3 3 5 3 5 5 7 3 2 0 2 2 2 2 5 4 4 3 2 4 7 8 6 4 2 4 3 10 8 8 5 5 5 5 7 7 8 8 8 9 12 11 10 10 9
24 23 20 19 21 21 19 18 16 12 8 9 13 17 19 23 25 20 8 4 3 5 3 3 6 5 5 6 11 8 8 5 4 4 6 5 6 6 6 7 5 3 2 5 3 2 3 5 3 5 2 1 2 2 2 4 1 3 6 6 6 7 6 7 5 7 6 6 2 5 7 7 7 6 7 7 7 7 8 10 10 9 10 11 11 9 8
23 21 19 20 20 20 18 16 14 11 11 8 7 8 9 18 16 18 8 3 3 3 3 4 5 6 8 7 7 4 8 5 4 4 5 5 3 5 3 5 5 3 2 3 2 4 2 4 5 2 3 1 0 2 3 2 3 5 6 6 5 3 4 5 7 8 7 5 6 9 10 7 5 7 9 9 10 9 8 8 10 12 11 11 10 7 5
21 20 19 21 20 18 18 17 9 6 7 8 8 6 2 5 3 7 6 2 3 3 3 3 3 6 7 6 4 4 5 5 5 5 3 7 2 2 3 2 2 5 3 3 6 3 3 4 2 2 1 1 2 3 1 2 4 6 6 6 5 2 2 4 7 6 6 7 7 10 11 12 13 11 9 9 10 9 10 10 9 10 11 10 8 6 4
21 19 19 18 18 14 8 5 5 4 4 5 6 4 8 8 6 5 4 3 3 4 4 3 3 6 5 5 6 3 6 5 3 3 1 3 3 2 3 4 1 2 4 6 4 4 4 3 2 1 1 1 1 3 4 4 6 5 5 5 4 3 4 6 5 8 8 6 8 10 10 11 12 10 9 10 9 8 8 10 10 9 10 8 7 5 4
21 16 16 16 8 2 4 4 3 6 5 2 4 6 7 4 2 2 4 3 3 1 4 4 6 6 3 4 4 3 6 5 5 1 3 1 2 4 4 4 2 2 4 4 1 2 1 2 1 1 2 2 2 4 5 4 2 5 6 5 3 3 4 4 1 4 9 10 12 8 6 10 11 10 10 10 9 9 10 10 9 9 8 8 5 5 5
21 15 5 3 3 4 3 2 2 0 5 6 2 3 3 2 3 3 2 3 3 5 4 4 6 4 1 2 6 4 5 3 2 2 2 0 2 2 1 2 5 1 1 2 2 2 2 1 2 1 2 2 2 4 5 3 3 3 5 5 4 3 4 4 2 2 4 4 3 4 7 10 10 8 9 8 8 9 9 8 9 8 6 6 5 4 5
14 2 2 2 0 2 3 5 1 3 4 4 2 2 2 2 2 2 3 3 2 3 3 4 5 4 5 5 7 3 3 3 2 3 2 3 1 2 4 2 3 0 1 2 2 4 1 2 3 2 3 2 2 5 3 2 3 4 6 7 6 5 6 6 5 6 6 5 4 6 7 8 7 6 5 6 6 6 6 6 7 8 8 8 7 6 8
5 5 6 5 3 6 8 2 5 2 2 3 1 1 2 2 2 2 1 2 2 3 3 4 4 4 6 6 6 5 2 3 3 2 3 4 1 1 1 1 3 1 1 2 1 3 2 3 2 0 3 4 5 6 7 5 4 6 7 7 8 8 7 8 8 8 8 8 9 9 9 9 7 5 3 3 4 5 6 5 5 6 6 7 8 7 6
4 5 5 5 6 6 6 8 7 3 2 3 2 3 0 1 3 2 1 2 2 1 2 4 2 3 3 3 3 5 1 1 1 1 1 3 1 1 1 0 2 1 1 1 1 1 2 2 2 2 2 4 5 5 4 5 6 5 6 7 5 6 7 8 8 7 7 7 7 8 8 8 7 6 7 7 6 6 6 8 7 6 5 5 7 7 6
3 3 5 7 9 9 7 4 3 3 3 2 2 1 1 1 1 1 2 2 1 1 4 4 3 4 4 5 5 3 2 2 1 1 1 2 2 0 0 1 1 1 0 1 2 1 0 3 2 1 4 6 6 5 5 5 5 6 7 6 6 7 8 6 7 7 7 7 6 6 5 5 5 5 5 6 8 8 7 6 6 5 6 6 7 5 7
13 10 5 3 4 3 2 2 4 3 2 1 1 3 2 1 2 2 2 2 2 1 2 3 2 2 6 2 2 3 2 2 1 1 1 0 1 1 0 0 1 1 2 1 1 1 2 3 3 2 3 6 6 5 3 4 4 4 3 3 1 2 5 6 8 8 7 7 6 6 6 6 7 7 8 9 9 9 8 7 6 8 8 8 7 7 6
5 2 3 2 2 3 3 2 2 2 2 1 3 3 5 6 4 2 3 4 2 1 3 3 2 2 3 4 1 1 2 2 1 1 0 0 1 1 0 1 3 1 1 2 1 3 3 4 6 4 2 3 5 5 2 4 4 3 4 5 5 6 6 6 6 7 8 8 9 9 9 10 10 10 10 9 9 8 7 7 8 8 8 7 7 7 6
2 1 0 1 1 3 1 2 1 2 2 3 2 4 4 6 8 9 8 7 5 6 7 4 4 4 4 2 1 3 2 0 1 2 0 0 0 0 1 3 1 0 1 3 2 2 2 6 3 3 4 3 1 2 3 2 3 4 6 7 8 8 8 8 9 9 10 9 8 8 8 7 7 7 8 8 8 7 8 7 6 6 6 6 5 5 4
3 1 1 2 4 2 2 1 2 3 1 1 3 5 6 8 7 9 8 7 8 8 7 4 5 4 5 1 1 2 1 1 1 1 1 0 0 3 2 1 2 2 3 2 3 4 6 6 4 4 3 0 2 4 3 3 3 5 5 9 9 8 10 10 10 9 9 8 8 8 7 7 7 7 8 7 6 6 7 7 6 5 3 4 4 3 3
3 2 1 1 1 1 1 2 2 2 4 4 6 8 8 8 8 9 7 6 8 6 6 5 7 0 1 2 2 1 1 2 1 1 2 1 1 2 1 1 3 2 2 3 4 4 5 4 4 3 2 3 5 4 1 2 3 4 3 5 6 7 7 7 8 8 7 7 9 9 7 7 6 7 8 8 8 8 7 5 5 4 4 5 4 5 6
3 1 1 1 2 1 1 2 5 6 7 9 10 8 7 7 6 5 5 4 5 4 5 6 5 2 1 1 3 3 2 1 0 1 1 1 1 2 1 3 4 3 2 4 6 5 7 6 4 2 5 7 6 4 5 5 7 8 8 7 7 9 11 10 9 9 8 8 6 6 6 6 7 5 5 6 5 4 5 5 5 3 3 4 5 5 5
3 1 0 1 2 2 4 5 0 5 8 4 5 2 8 10 7 6 6 5 6 6 5 4 3 3 3 2 0 3 3 4 2 2 2 2 3 3 2 3 4 5 5 5 8 7 8 7 8 10 9 8 9 12 12 8 5 6 8 8 9 8 7 6 6 5 5 6 5 4 4 4 5 5 5 4 4 3 2 3 4 4 4 4 3 3 3
1 1 2 1 3 5 2 6 2 5 8 9 10 4 5 2 7 6 5 7 7 6 7 5 4 2 2 2 1 2 2 3 3 2 4 7 5 4 3 6 5 3 4 5 7 8 8 7 6 8 8 10 11 10 11 11 14 13 9 9 8 6 6 7 7 7 7 6 6 5 4 4 5 5 4 3 2 3 4 4 4 4 4 5 5 4 4
2 2 1 3 6 6 7 8 10 9 8 9 7 8 9 7 3 3 2 3 7 6 3 6 5 3 2 2 2 2 2 3 3 6 4 4 4 4 5 5 4 5 9 8 8 7 6 8 7 7 8 8 7 8 9 9 9 9 10 9 10 10 8 6 6 6 5 6 5 5 5 6 6 4 2 3 5 5 5 5 5 5 5 5 5 7 5
2 2 5 6 5 7 6 3 5 8 5 4 5 7 5 6 6 5 1 3 3 7 9 6 3 3 2 3 3 1 4 1 3 4 6 5 4 4 4 6 7 8 8 8 8 7 7 6 6 7 6 6 8 8 8 6 7 9 9 8 7 6 7 8 7 6 4 4 5 5 6 6 6 6 7 8 7 6 6 5 5 5 5 6 8 8 6
Wind_Direction
323 322 322 321 320 320 320 320 323 323 329 332 335 323 307 294 280 288 293 297 305 296 280 273 257 245 248 259 258 261 268 276 284 287 270 263 260 270 266 265 276 265 268 272 270 274 280 281 285 299 222 230 210 208 199 189 188 211 206 191 190 184 217 194 245 293 273 268 223 182 183 186 199 195 200 214 217 219 225 220 188 186 183 213 195 228 218
321 322 321 321 319 315 314 318 321 323 329 318 321 314 301 303 299 298 286 279 275 276 261 267 253 249 254 249 259 264 279 283 273 257 259 260 258 255 263 271 257 278 275 273 274 281 284 273 279 285 314 290 236 200 214 197 202 188 187 214 157 202 195 185 154 240 277 283 309 213 181 186 197 193 188 211 227 223 233 257 189 220 212 213 160 230 230
319 319 319 318 317 314 314 314 314 319 320 314 325 307 304 298 278 258 282 298 261 247 238 254 267 270 263 265 267 260 253 254 266 267 270 274 266 265 259 266 281 275 286 278 277 263 255 291 279 286 298 282 303 257 204 217 227 194 182 205 155 202 165 182 203 194 209 220 214 207 193 192 181 197 193 193 217 219 213 230 214 211 225 220 191 225 238
318 318 317 315 313 312 309 307 308 310 314 318 318 307 303 303 308 307 307 300 316 291 271 248 255 263 271 273 269 270 266 266 278 313 312 299 269 255 280 268 275 279 272 276 277 277 260 249 275 286 285 298 290 303 278 225 222 226 189 197 164 194 174 186 199 199 207 229 229 232 174 179 196 187 199 208 204 220 218 215 220 206 221 209 224 188 219
318 316 314 310 312 309 303 302 302 306 305 306 316 292 268 286 272 307 319 319 306 309 328 336 336 309 332 315 345 314 319 314 304 313 311 307 317 331 339 340 293 298 341 324 317 311 291 253 257 258 267 280 286 291 294 295 282 247 214 194 191 180 197 190 193 205 211 212 236 239 226 184 186 181 191 209 230 210 217 210 229 193 136 274 266 216 219
316 315 313 312 310 309 305 304 295 296 298 287 281 294 277 280 271 295 311 299 302 316 323 333 320 316 308 294 288 288 301 309 300 305 276 298 313 333 336 326 352 3 343 330 316 353 345 324 320 348 332 342 329 310 294 278 286 266 202 167 186 137 200 188 186 205 214 219 243 255 248 217 187 192 190 196 212 238 227 223 229 199 197 221 236 194 196
314 313 311 311 310 306 305 300 287 291 299 294 302 281 268 266 291 288 301 308 304 305 305 309 304 302 303 301 300 286 280 284 291 285 305 300 295 304 300 313 350 344 338 339 323 359 357 336 328 353 337 327 327 312 319 292 294 260 199 176 147 137 159 202 190 194 206 218 230 240 252 255 211 199 204 197 196 213 235 245 233 217 219 224 211 205 221
312 311 311 311 308 303 300 296 283 286 295 262 260 238 265 283 298 301 323 296 294 296 299 300 310 306 312 306 278 280 281 286 292 288 282 291 297 327 313 313 319 334 347 3 345 338 331 321 310 320 325 314 329 317 265 319 325 327 269 176 158 122 201 195 203 200 204 211 226 238 245 248 257 228 210 209 199 199 211 233 246 243 234 227 214 214 226
311 310 309 310 306 301 301 294 279 279 285 285 240 259 236 257 294 324 304 308 300 307 302 302 306 301 302 300 319 324 318 296 292 286 286 296 310 323 297 304 320 327 331 327 313 320 325 314 308 306 300 280 295 297 296 318 308 308 310 250 139 171 147 161 190 208 231 205 205 224 244 254 257 256 254 231 213 204 195 211 221 234 226 213 222 221 236
310 309 309 309 308 302 299 290 261 254 192 254 256 267 279 275 238 215 273 285 296 304 294 285 289 280 327 330 316 312 312 304 331 325 340 335 331 308 322 347 329 314 324 323 327 328 316 307 306 303 288 277 275 256 259 274 274 283 288 293 236 156 134 134 95 185 215 303 227 203 212 242 251 246 240 243 272 237 195 200 197 216 231 219 188 233 212
311 311 309 309 307 305 302 299 283 258 208 242 254 271 282 289 310 325 243 286 284 274 290 284 276 291 299 300 308 312 312 310 302 303 300 298 291 308 301 293 313 294 293 299 309 300 298 297 295 295 287 286 278 273 272 268 261 262 277 289 256 133 132 141 114 158 120 229 274 256 191 212 233 224 228 236 236 245 227 209 203 214 202 211 191 192 177
316 315 313 311 308 306 303 297 288 272 253 258 263 271 273 285 287 276 275 275 290 296 289 289 295 303 302 307 309 312 316 313 307 299 285 290 299 293 287 277 242 280 256 281 292 311 308 302 306 311 305 289 280 278 282 272 265 263 262 263 244 182 114 143 135 121 199 171 276 304 250 254 205 133 203 210 247 259 266 280 297 282 216 203 23 7 15
323 320 316 315 312 308 305 299 290 277 258 264 238 258 271 275 263 271 281 280 276 293 294 292 301 299 292 297 308 307 303 296 299 297 301 302 292 287 285 283 245 239 249 320 329 328 333 326 326 305 294 305 289 283 282 280 273 273 275 274 285 204 150 121 145 134 101 110 179 223 234 288 338 55 245 335 287 250 286 283 303 15 19 105 112 128 107
328 328 322 318 315 311 308 305 299 288 275 246 256 251 265 271 264 257 234 259 268 272 293 299 290 287 299 309 308 313 319 321 314 308 298 314 310 309 292 292 337 8 126 303 309 328 325 359 333 342 333 315 312 286 281 286 279 271 268 278 267 228 138 131 189 140 170 172 230 240 4 326 170 280 340 84 324 262 181 118 29 349 22 80 100 68 74
333 327 323 322 320 314 310 308 303 296 290 269 275 265 266 252 235 250 297 265 277 288 287 279 290 304 310 304 311 319 319 323 324 320 315 302 290 275 328 331 346 320 132 71 15 318 282 339 335 334 313 332 303 301 300 267 272 257 270 279 275 135 181 168 181 178 169 165 228 266 260 240 213 202 31 91 74 77 81 103 62 347 358 18 73 55 50
331 326 322 322 320 316 313 310 306 300 290 266 272 274 271 260 208 232 236 247 295 290 257 243 286 314 313 305 306 309 318 325 326 318 311 321 320 328 341 322 321 305 55 13 91 56 326 308 279 290 287 320 321 312 307 302 261 261 254 257 268 267 114 157 183 149 172 195 213 212 222 219 236 337 345 73 57 93 88 71 37 302 334 355 54 65 48
329 326 322 320 318 316 312 310 307 305 296 275 287 288 278 241 241 215 229 237 214 246 283 296 297 294 293 295 303 319 320 311 335 328 319 317 314 314 330 341 301 304 108 290 145 59 300 225 241 266 289 278 288 317 306 306 309 266 242 287 335 316 227 149 185 147 153 180 203 216 168 212 255 73 54 49 33 17 65 120 195 280 352 4 41 54 47
329 326 322 321 320 315 312 313 312 310 308 298 284 289 283 284 171 238 240 248 262 268 257 258 259 270 275 306 291 283 287 247 254 278 278 302 308 359 321 327 318 321 266 225 158 158 237 230 208 222 269 284 300 292 293 307 310 8 344 321 242 39 15 189 171 164 140 150 210 187 255 98 200 141 87 63 28 61 113 186 182 287 47 28 43 46 45
333 329 326 324 322 319 316 313 312 313 314 304 292 290 265 258 231 193 248 260 238 259 272 296 299 287 283 286 283 295 290 285 272 299 317 311 343 315 299 299 349 338 351 12 9 209 212 233 86 153 263 325 340 316 300 322 324 340 11 17 342 4 105 267 52 155 155 133 129 187 55 289 320 102 155 119 62 105 146 182 205 73 54 43 38 36 25
337 333 330 326 324 320 316 314 313 312 311 310 291 276 285 290 255 186 215 243 241 267 280 278 277 276 280 283 282 273 275 278 258 158 231 281 306 310 320 358 350 341 346 105 216 245 238 236 211 132 256 309 300 307 299 280 342 334 350 3 248 332 299 13 128 99 87 107 124 130 230 273 7 13 357 49 134 202 156 117 70 74 74 61 48 36 30
337 336 334 329 324 320 315 313 313 312 312 309 303 296 292 278 278 253 224 244 268 291 283 249 257 276 293 286 284 286 284 284 289 286 245 233 272 303 313 0 330 330 355 355 333 289 276 265 214 162 186 138 312 321 306 327 319 360 5 346 22 342 355 9 340 358 165 129 192 183 192 199 201 162 142 264 115 182 116 106 92 70 72 79 67 51 38
338 340 337 332 328 323 319 315 314 312 309 309 301 290 280 285 301 80 237 180 242 244 261 285 289 281 276 273 273 271 272 271 273 277 294 297 289 294 299 290 288 145 143 221 299 284 298 319 296 357 66 331 261 252 312 343 312 336 345 359 317 347 32 14 291 303 4 339 324 278 171 60 58 100 125 105 88 92 88 82 78 74 64 66 69 55 49
337 337 335 332 332 329 324 321 318 315 312 313 309 285 283 293 296 166 174 269 252 250 260 265 262 265 265 265 258 256 253 255 259 256 250 264 281 267 266 278 292 119 70 341 132 292 302 308 292 343 326 131 261 299 269 191 288 352 329 322 279 302 4 334 275 342 332 281 288 321 83 118 122 104 91 89 79 70 76 81 80 68 66 62 70 67 58
334 334 332 332 329 328 326 323 322 319 318 311 303 295 287 287 288 303 279 255 261 292 287 254 259 260 265 273 278 250 240 241 235 239 241 234 254 261 253 258 339 348 127 179 157 114 321 306 293 317 278 339 346 256 321 323 352 353 328 342 352 352 17 353 346 339 9 331 325 307 81 67 80 91 90 85 82 78 81 79 81 82 73 69 61 64 60
330 330 329 329 328 327 326 325 323 319 317 313 308 294 284 278 260 261 294 308 306 323 300 305 277 271 275 280 281 280 274 276 281 251 229 224 228 249 270 167 218 135 245 109 199 95 197 295 316 299 317 325 353 292 349 345 331 32 350 312 344 333 8 334 7 332 8 177 320 323 44 80 75 75 87 94 92 88 83 86 85 80 73 68 62 59 55
326 325 326 326 327 326 325 324 323 319 315 314 312 297 292 284 289 277 236 235 254 248 280 283 292 302 310 303 291 299 300 286 276 276 263 244 232 232 246 262 260 148 132 334 133 108 268 288 278 273 132 272 309 311 294 264 274 309 269 277 305 309 357 323 4 336 316 329 300 303 315 73 77 76 72 68 78 88 87 86 83 79 76 72 64 56 56
324 323 323 323 323 322 323 323 322 320 319 314 305 294 282 275 264 232 238 251 311 279 226 260 286 304 318 307 297 292 286 276 269 261 244 221 227 230 223 220 236 80 303 278 217 182 178 246 268 275 232 276 241 262 304 319 345 318 295 310 1 354 341 354 340 40 303 215 278 317 333 55 56 73 78 78 76 79 78 75 73 74 76 75 74 68 61
320 319 318 319 320 319 320 318 317 317 314 314 303 288 276 272 260 237 204 207 208 253 298 295 297 297 302 284 279 278 275 258 246 254 270 254 216 211 227 225 209 184 184 206 257 252 278 278 267 315 287 323 310 308 170 293 328 300 275 310 33 300 315 334 261 165 210 323 314 298 300 53 15 29 53 78 83 85 83 77 77 72 72 71 75 73 64
316 315 315 314 314 314 314 314 312 314 314 313 305 293 283 257 256 238 239 201 184 250 268 276 279 277 288 317 318 303 292 286 268 235 239 246 245 215 211 218 203 193 199 228 236 207 221 232 170 208 258 139 309 279 14 110 223 249 265 326 332 296 309 286 285 298 146 309 296 298 346 54 43 30 31 37 41 72 79 79 77 77 73 72 73 71 78
312 311 311 311 311 311 309 308 309 307 314 314 307 304 300 340 36 308 209 191 164 173 277 302 301 294 303 295 291 290 289 276 259 254 248 249 254 239 201 191 198 201 251 251 125 270 267 283 264 247 200 159 226 299 256 149 306 261 249 330 351 346 345 287 272 249 178 201 266 288 356 64 72 63 40 43 46 58 69 67 70 72 66 61 66 68 66
310 309 308 308 307 307 306 304 305 303 305 292 306 303 285 286 242 243 195 96 148 257 290 279 275 294 286 270 269 293 290 271 263 255 239 231 237 244 233 194 183 187 188 211 251 233 238 239 257 237 124 188 240 244 274 301 280 272 344 343 12 13 1 333 333 41 17 188 258 63 64 25 21 66 63 56 60 54 67 73 75 77 77 69 66 59 59
310 308 306 305 302 301 299 298 294 293 282 271 242 232 249 300 301 282 306 311 323 295 265 283 289 285 306 292 304 296 293 280 244 250 265 200 202 207 231 194 203 167 216 233 206 239 228 244 254 256 93 92 247 262 223 243 257 262 356 19 17 39 19 335 333 79 216 294 102 90 76 77 53 56 84 80 81 75 76 77 73 72 75 77 73 60 49
309 307 305 299 300 298 294 289 285 275 265 272 286 291 282 278 275 272 268 266 257 248 273 283 273 301 280 307 311 310 336 290 208 236 263 186 218 174 230 169 183 149 176 224 182 241 223 226 227 256 131 234 241 283 267 217 256 50 55 37 35 28 29 318 346 42 53 51 31 121 123 122 123 105 91 79 76 87 89 80 74 70 68 67 65 62 56
306 306 301 300 299 296 288 281 279 271 263 258 264 241 236 232 246 253 242 225 263 257 241 259 289 294 293 306 295 4 357 351 313 338 298 174 225 172 219 178 146 88 342 271 237 238 284 314 246 158 107 328 355 278 248 175 127 71 57 57 38 8 22 7 12 41 42 50 57 72 67 40 67 87 85 74 68 60 67 82 80 74 71 69 66 59 48
305 302 301 299 299 292 285 282 279 246 256 259 255 257 139 110 102 157 170 178 248 243 227 245 227 289 311 317 305 327 0 330 326 40 55 299 327 75 27 344 103 163 270 253 248 188 251 246 301 123 211 152 218 226 284 123 84 72 66 52 25 348 339 27 23 21 36 24 49 66 65 67 56 45 49 64 70 70 72 72 76 79 76 73 74 65 49
305 302 302 301 290 284 283 251 208 237 240 237 249 175 164 171 146 155 188 178 231 280 284 286 283 279 303 304 326 336 340 314 342 52 122 255 331 50 52 80 301 197 179 212 226 208 212 4 343 182 192 182 327 315 91 94 93 92 90 77 52 28 58 44 57 53 43 49 61 58 67 72 70 63 52 46 44 51 66 75 73 77 84 86 86 89 71
304 302 300 291 279 201 238 249 183 198 231 274 72 138 162 172 204 234 194 206 196 221 255 288 282 263 253 293 301 283 330 329 354 344 187 271 67 23 27 349 236 258 285 221 215 275 63 277 88 78 345 58 329 325 39 31 115 99 91 97 109 110 94 83 36 78 85 58 50 44 47 72 68 62 58 50 42 34 38 49 61 67 71 80 92 95 93
304 301 283 273 257 285 285 193 236 121 197 266 157 159 135 123 210 191 174 230 184 181 215 225 251 273 252 238 255 287 329 287 355 334 315 326 71 78 182 204 249 192 226 8 273 237 290 40 41 80 90 20 23 29 26 341 41 78 111 122 120 114 130 149 146 66 66 83 95 97 77 67 67 62 70 61 50 44 41 39 35 37 54 63 61 82 115
312 297 226 215 233 284 307 344 156 188 250 282 169 271 188 175 233 252 187 184 162 228 194 217 260 243 230 226 254 246 226 299 339 17 3 333 119 198 192 225 277 253 173 177 260 248 113 43 58 22 32 3 6 6 308 292 6 26 73 75 83 94 98 96 94 88 78 70 65 61 75 83 86 79 76 88 81 71 64 58 56 46 36 33 33 38 48
337 331 331 316 313 324 320 287 142 304 268 264 170 223 282 175 190 253 178 218 211 231 156 233 226 232 219 241 274 291 176 192 188 237 239 278 144 210 292 274 245 157 68 295 48 14 97 112 85 285 10 16 60 46 52 46 50 42 41 58 60 53 56 65 65 55 54 48 44 57 67 76 76 81 85 80 88 90 77 69 67 62 50 44 38 29 29
342 321 312 327 330 316 301 317 308 262 248 241 233 224 58 287 213 208 107 274 236 166 220 264 257 254 232 257 248 262 251 292 302 39 233 266 354 57 77 313 237 63 319 39 14 338 56 73 97 60 337 8 55 23 13 47 60 63 31 28 33 71 68 71 62 60 61 60 55 50 58 62 64 64 59 55 50 64 78 82 71 57 52 53 49 37 29
322 270 285 294 284 274 281 265 226 252 206 204 229 264 196 208 329 324 261 252 9 115 261 219 233 285 278 196 212 211 263 143 198 193 210 202 234 344 316 258 325 86 229 28 54 50 12 64 74 48 350 46 44 15 26 42 22 44 64 62 31 48 61 56 76 71 62 62 55 56 67 84 82 75 71 67 59 47 44 61 76 77 73 64 52 42 34
296 279 246 282 286 298 318 335 348 334 307 321 327 312 324 344 300 339 308 220 241 111 254 134 252 249 283 291 273 185 231 184 159 236 193 223 94 200 173 349 150 84 53 324 8 333 67 82 102 49 355 29 4 352 350 46 39 22 47 51 73 125 93 89 75 77 72 62 54 48 44 48 56 65 71 65 61 61 48 37 51 63 56 50 43 33 34
245 278 296 325 330 310 10 341 262 24 352 339 333 324 334 330 330 311 303 338 15 214 271 283 200 158 319 200 164 113 333 336 102 299 72 315 306 33 118 26 37 56 203 64 48 34 42 54 67 101 78 75 39 341 359 49 42 31 65 87 93 86 87 88 88 84 73 61 56 52 49 45 45 50 56 63 66 67 58 52 47 49 56 60 51 44 36
286 213 155 336 350 295 17 356 308 60 346 330 325 315 346 318 315 324 330 334 327 326 318 326 314 250 260 115 96 226 114 220 210 224 334 62 86 353 33 106 141 227 82 80 59 41 53 87 110 55 39 15 319 286 356 36 77 64 70 68 58 58 60 60 64 63 65 64 65 62 59 56 59 66 74 77 75 67 68 65 57 59 60 57 53 50 34
263 313 330 0 333 334 66 295 303 334 303 202 273 254 276 280 295 299 299 310 312 315 312 309 274 318 336 138 266 58 94 202 103 24 358 255 74 57 48 296 217 100 60 50 54 54 87 118 113 108 114 135 331 339 5 25 50 82 80 85 90 80 71 69 68 71 74 76 72 69 65 60 60 59 56 54 61 88 97 93 79 71 64 55 48 42 27
271 214 165 148 281 289 117 345 321 292 293 272 260 270 262 275 288 277 273 286 292 310 313 320 295 268 295 336 30 267 126 105 171 173 128 281 111 98 180 324 38 36 65 64 61 73 90 82 48 57 61 29 346 317 7 67 64 74 68 69 70 76 83 84 82 86 92 86 78 73 66 57 51 54 57 51 46 39 41 50 79 74 61 59 53 49 47
269 253 63 339 297 298 337 251 231 262 254 262 277 282 288 290 300 339 344 305 302 327 315 319 318 312 238 78 328 329 357 334 315 87 143 324 118 133 56 34 59 45 15 80 92 89 90 89 85 34 15 11 333 341 43 47 60 59 58 59 64 72 70 63 57 54 58 65 71 77 74 64 55 51 56 72 70 49 41 39 32 42 79 78 58 47 44
263 1 177 242 223 174 215 234 178 292 286 237 228 241 335 344 349 349 345 329 339 323 321 297 311 313 6 88 26 1 23 344 14 348 313 357 39 29 21 53 45 55 23 47 75 73 80 63 44 34 29 26 24 15 5 5 41 71 65 62 62 60 59 67 70 67 57 57 55 63 60 62 56 52 54 50 52 52 57 50 30 32 38 66 84 76 51
336 283 206 275 351 25 107 167 227 334 3 352 346 331 160 218 312 328 348 337 337 317 288 246 205 241 16 347 10 29 39 343 24 346 19 32 23 4 34 61 35 52 56 46 72 67 58 53 37 42 40 32 19 29 29 15 22 10 18 44 50 47 54 61 61 54 53 52 56 48 45 73 95 84 76 78 53 52 53 36 20 21 24 21 27 51 72
231 245 311 10 26 9 359 13 7 0 359 348 331 332 341 328 277 305 82 325 306 310 356 21 8 18 348 9 354 29 346 302 35 33 29 12 342 12 39 51 36 47 60 57 57 55 46 43 41 45 38 25 23 31 42 35 42 28 26 19 26 29 33 29 50 59 55 48 38 29 32 56 70 76 67 45 45 43 42 32 30 39 28 15 19 31 49
283 355 352 2 11 12 10 359 23 14 353 301 297 324 335 335 330 321 175 190 310 27 30 7 20 2 4 30 26 270 250 7 42 14 43 31 349 27 42 45 48 43 48 52 48 46 48 41 45 53 46 46 47 45 50 50 41 46 26 22 31 16 26 19 23 32 38 29 24 6 11 33 42 36 36 36 27 26 28 23 17 22 22 28 24 35 51